| time (UTC) | temp F | wind direction | speed MPH | gust MPH | rain 1hr in | rain 24hr in | rain mn in | humidity % | barometer mb |
| 20260505101821 | 55 | 306 | 1.0 | 1.0 | 0.00 | 0.00 | 0.00 | 90 | 1013.4 |
| 20260505101316 | 55 | 303 | 4.0 | 6.0 | 0.00 | 0.00 | 0.00 | 90 | 1013.5 |
| 20260505100812 | 55 | 310 | 2.0 | 2.0 | 0.00 | 0.00 | 0.00 | 90 | 1013.4 |
| 20260505100309 | 55 | 292 | 3.0 | 5.0 | 0.00 | 0.00 | 0.00 | 90 | 1013.2 |
| 20260505095805 | 55 | 283 | 2.0 | 2.0 | 0.00 | 0.00 | 0.00 | 90 | 1013.6 |
| 20260505095304 | 55 | 264 | 2.0 | 2.0 | 0.00 | 0.00 | 0.00 | 91 | 1013.3 |
| 20260505094758 | 55 | 311 | 1.0 | 2.0 | 0.00 | 0.00 | 0.00 | 91 | 1013.4 |
| 20260505094255 | 55 | 333 | 4.0 | 5.0 | 0.00 | 0.00 | 0.00 | 91 | 1013.2 |
| 20260505093751 | 55 | 106 | 2.0 | 2.0 | 0.00 | 0.00 | 0.00 | 91 | 1013.1 |
| 20260505093249 | 55 | 311 | 2.0 | 2.0 | 0.00 | 0.00 | 0.00 | 91 | 1013.0 |
| 20260505092745 | 55 | 337 | 6.0 | 9.0 | 0.00 | 0.00 | 0.00 | 91 | 1013.2 |
| 20260505092244 | 55 | 351 | 3.0 | 3.0 | 0.00 | 0.00 | 0.00 | 91 | 1013.2 |
| 20260505091741 | 55 | 296 | 2.0 | 2.0 | 0.00 | 0.00 | 0.00 | 91 | 1013.1 |
| 20260505091239 | 55 | 314 | 1.0 | 2.0 | 0.00 | 0.00 | 0.00 | 91 | 1013.0 |
| 20260505090736 | 55 | 309 | 3.0 | 5.0 | 0.00 | 0.00 | 0.00 | 91 | 1013.0 |
| 20260505090234 | 55 | 311 | 2.0 | 2.0 | 0.00 | 0.00 | 0.00 | 91 | 1013.1 |
| 20260505085731 | 55 | 196 | 1.0 | 2.0 | 0.00 | 0.00 | 0.00 | 91 | 1012.8 |
| 20260505085230 | 55 | 323 | 2.0 | 2.0 | 0.00 | 0.00 | 0.00 | 91 | 1013.0 |
| 20260505084726 | 55 | 333 | 2.0 | 2.0 | 0.00 | 0.00 | 0.00 | 91 | 1012.9 |
| 20260505084226 | 55 | 334 | 3.0 | 5.0 | 0.00 | 0.00 | 0.00 | 91 | 1012.7 |
| 20260505083722 | 55 | 328 | 5.0 | 7.0 | 0.00 | 0.00 | 0.00 | 91 | 1012.8 |
| 20260505083219 | 55 | 293 | 2.0 | 3.0 | 0.00 | 0.00 | 0.00 | 91 | 1012.9 |
| 20260505082715 | 55 | 313 | 2.0 | 3.0 | 0.00 | 0.00 | 0.00 | 91 | 1012.7 |
| 20260505082213 | 55 | 152 | 5.0 | 7.0 | 0.00 | 0.00 | 0.00 | 91 | 1012.7 |
| 20260505081708 | 55 | 345 | 3.0 | 3.0 | 0.00 | 0.00 | 0.00 | 91 | 1012.5 |
| 20260505081206 | 55 | 312 | 2.0 | 3.0 | 0.00 | 0.00 | 0.00 | 91 | 1012.7 |
| 20260505080703 | 55 | 318 | 3.0 | 3.0 | 0.00 | 0.00 | 0.00 | 91 | 1012.6 |
| 20260505080158 | 55 | 313 | 3.0 | 3.0 | 0.00 | 0.00 | 0.00 | 91 | 1012.5 |
| 20260505075654 | 55 | 303 | 5.0 | 6.0 | 0.00 | 0.00 | 0.00 | 91 | 1012.5 |
| 20260505075151 | 55 | 301 | 5.0 | 6.0 | 0.00 | 0.00 | 0.00 | 91 | 1012.5 |
| 20260505074648 | 55 | 303 | 1.0 | 3.0 | 0.00 | 0.00 | 0.00 | 91 | 1012.6 |
| 20260505074145 | 55 | 310 | 2.0 | 2.0 | 0.00 | 0.00 | 0.00 | 91 | 1012.7 |
| 20260505073643 | 55 | 345 | 2.0 | 3.0 | 0.00 | 0.00 | 0.00 | 91 | 1012.3 |
| 20260505073141 | 55 | 333 | 1.0 | 2.0 | 0.00 | 0.00 | 0.00 | 91 | 1012.5 |
| 20260505072636 | 55 | 324 | 3.0 | 5.0 | 0.00 | 0.00 | 0.00 | 91 | 1012.1 |
| 20260505072133 | 55 | 170 | 0.0 | 0.0 | 0.00 | 0.00 | 0.00 | 91 | 1012.3 |
| 20260505071628 | 55 | 343 | 3.0 | 3.0 | 0.00 | 0.00 | 0.00 | 91 | 1012.3 |
| 20260505071127 | 55 | 311 | 2.0 | 3.0 | 0.00 | 0.00 | 0.00 | 91 | 1012.1 |
| 20260505070624 | 55 | 331 | 2.0 | 3.0 | 0.00 | 0.00 | 0.00 | 91 | 1012.2 |
| 20260505070120 | 55 | 309 | 4.0 | 6.0 | 0.00 | 0.00 | 0.00 | 91 | 1012.1 |
| 20260505065616 | 55 | 323 | 3.0 | 5.0 | 0.00 | 0.00 | 0.00 | 91 | 1012.0 |
| 20260505065112 | 55 | 307 | 2.0 | 2.0 | 0.00 | 0.00 | 0.00 | 91 | 1011.8 |
| 20260505064609 | 55 | 13 | 6.0 | 9.0 | 0.00 | 0.00 | 0.00 | 91 | 1011.7 |
| 20260505064108 | 55 | 33 | 2.0 | 3.0 | 0.00 | 0.00 | 0.00 | 91 | 1011.6 |
| 20260505063605 | 55 | 344 | 4.0 | 6.0 | 0.00 | 0.00 | 0.00 | 91 | 1011.6 |
| 20260505063100 | 55 | 251 | 2.0 | 3.0 | 0.00 | 0.00 | 0.00 | 91 | 1011.6 |
| 20260505062557 | 55 | 206 | 1.0 | 2.0 | 0.00 | 0.00 | 0.00 | 91 | 1011.5 |
| 20260505062055 | 55 | 330 | 3.0 | 6.0 | 0.00 | 0.00 | 0.00 | 91 | 1011.7 |
| 20260505061552 | 55 | 297 | 3.0 | 3.0 | 0.00 | 0.00 | 0.00 | 91 | 1011.3 |
| 20260505061050 | 55 | 320 | 8.0 | 11.0 | 0.00 | 0.00 | 0.00 | 91 | 1011.5 |
| 20260505060547 | 56 | 316 | 4.0 | 5.0 | 0.00 | 0.00 | 0.00 | 90 | 1011.3 |
| 20260505060044 | 56 | 312 | 2.0 | 2.0 | 0.00 | 0.00 | 0.00 | 91 | 1011.4 |
| 20260505055539 | 55 | 313 | 4.0 | 6.0 | 0.00 | 0.00 | 0.00 | 91 | 1011.2 |
| 20260505055036 | 55 | 315 | 6.0 | 8.0 | 0.00 | 0.00 | 0.00 | 91 | 1011.3 |
| 20260505054533 | 55 | 212 | 1.0 | 1.0 | 0.00 | 0.00 | 0.00 | 91 | 1011.5 |
| 20260505054031 | 55 | 292 | 5.0 | 6.0 | 0.00 | 0.00 | 0.00 | 91 | 1011.2 |
| 20260505053528 | 55 | 263 | 3.0 | 5.0 | 0.00 | 0.00 | 0.00 | 91 | 1011.2 |
| 20260505053025 | 55 | 314 | 3.0 | 3.0 | 0.00 | 0.00 | 0.00 | 91 | 1011.5 |
| 20260505052522 | 55 | 293 | 3.0 | 5.0 | 0.00 | 0.00 | 0.00 | 90 | 1011.6 |
| 20260505052019 | 55 | 211 | 2.0 | 2.0 | 0.00 | 0.00 | 0.00 | 90 | 1011.3 |
| 20260505051516 | 56 | 324 | 3.0 | 3.0 | 0.00 | 0.00 | 0.00 | 90 | 1011.3 |
| 20260505051014 | 56 | 237 | 3.0 | 5.0 | 0.00 | 0.00 | 0.00 | 89 | 1011.3 |
| 20260505050512 | 56 | 295 | 5.0 | 6.0 | 0.00 | 0.00 | 0.00 | 89 | 1011.1 |
| 20260505041439 | 59 | 330 | 4.0 | 6.0 | 0.00 | 0.00 | 0.00 | 84 | 1010.8 |
| 20260505040937 | 59 | 318 | 3.0 | 5.0 | 0.00 | 0.00 | 0.00 | 83 | 1010.6 |
| 20260505040434 | 59 | 322 | 3.0 | 3.0 | 0.00 | 0.00 | 0.00 | 83 | 1010.7 |
| 20260505035931 | 60 | 311 | 3.0 | 5.0 | 0.00 | 0.00 | 0.00 | 82 | 1010.6 |
| 20260505035427 | 60 | 298 | 3.0 | 6.0 | 0.00 | 0.00 | 0.00 | 81 | 1010.6 |
| 20260505034924 | 60 | 216 | 0.0 | 1.0 | 0.00 | 0.00 | 0.00 | 80 | 1010.5 |
| 20260505034420 | 61 | 324 | 2.0 | 5.0 | 0.00 | 0.00 | 0.00 | 79 | 1010.1 |
| 20260505033918 | 61 | 358 | 1.0 | 2.0 | 0.00 | 0.00 | 0.00 | 79 | 1010.2 |
| 20260505033414 | 61 | 193 | 4.0 | 5.0 | 0.00 | 0.00 | 0.00 | 78 | 1010.0 |
| 20260505032913 | 62 | 14 | 3.0 | 5.0 | 0.00 | 0.00 | 0.00 | 77 | 1009.8 |
| 20260505032409 | 62 | 108 | 0.0 | 1.0 | 0.00 | 0.00 | 0.00 | 77 | 1009.8 |
| 20260505031906 | 62 | 351 | 5.0 | 6.0 | 0.00 | 0.00 | 0.00 | 76 | 1009.8 |
| 20260505031403 | 63 | 198 | 0.0 | 1.0 | 0.00 | 0.00 | 0.00 | 76 | 1009.6 |
| 20260505030900 | 63 | 329 | 5.0 | 9.0 | 0.00 | 0.00 | 0.00 | 75 | 1009.7 |
| 20260505030356 | 64 | 252 | 2.0 | 2.0 | 0.00 | 0.00 | 0.00 | 74 | 1009.7 |
| 20260505025851 | 64 | 347 | 6.0 | 7.0 | 0.00 | 0.00 | 0.00 | 74 | 1009.5 |
| 20260505025349 | 64 | 325 | 4.0 | 6.0 | 0.00 | 0.00 | 0.00 | 73 | 1009.5 |
| 20260505024848 | 65 | 254 | 0.0 | 1.0 | 0.00 | 0.00 | 0.00 | 73 | 1009.3 |
| 20260505024345 | 65 | 334 | 4.0 | 5.0 | 0.00 | 0.00 | 0.00 | 72 | 1009.5 |
| 20260505023842 | 66 | 303 | 3.0 | 3.0 | 0.00 | 0.00 | 0.00 | 72 | 1009.2 |
| 20260505023339 | 66 | 246 | 3.0 | 5.0 | 0.00 | 0.00 | 0.00 | 71 | 1009.3 |
| 20260505022836 | 66 | 303 | 1.0 | 2.0 | 0.00 | 0.00 | 0.00 | 70 | 1009.1 |
| 20260505022333 | 67 | 318 | 5.0 | 6.0 | 0.00 | 0.00 | 0.00 | 70 | 1009.1 |
| 20260505021830 | 67 | 262 | 3.0 | 5.0 | 0.00 | 0.00 | 0.00 | 69 | 1009.2 |
| 20260505021327 | 68 | 209 | 2.0 | 2.0 | 0.00 | 0.00 | 0.00 | 69 | 1009.1 |
| 20260505020822 | 68 | 310 | 8.0 | 10.0 | 0.00 | 0.00 | 0.00 | 68 | 1009.2 |
| 20260505020318 | 68 | 315 | 3.0 | 5.0 | 0.00 | 0.00 | 0.00 | 67 | 1009.0 |
| 20260505015815 | 69 | 313 | 3.0 | 6.0 | 0.00 | 0.00 | 0.00 | 67 | 1009.1 |
| 20260505015312 | 69 | 321 | 2.0 | 3.0 | 0.00 | 0.00 | 0.00 | 67 | 1009.1 |
| 20260505014810 | 69 | 248 | 5.0 | 7.0 | 0.00 | 0.00 | 0.00 | 66 | 1009.0 |
| 20260505014307 | 69 | 259 | 2.0 | 2.0 | 0.00 | 0.00 | 0.00 | 66 | 1009.1 |
| 20260505013803 | 70 | 321 | 4.0 | 7.0 | 0.00 | 0.00 | 0.00 | 65 | 1009.0 |
| 20260505013300 | 70 | 307 | 6.0 | 7.0 | 0.00 | 0.00 | 0.00 | 64 | 1009.0 |
| 20260505012759 | 71 | 303 | 4.0 | 6.0 | 0.00 | 0.00 | 0.00 | 65 | 1008.8 |
| 20260505012256 | 71 | 312 | 2.0 | 3.0 | 0.00 | 0.00 | 0.00 | 65 | 1008.9 |
| 20260505011751 | 72 | 306 | 4.0 | 6.0 | 0.00 | 0.00 | 0.00 | 63 | 1009.3 |
| 20260505011249 | 72 | 275 | 3.0 | 5.0 | 0.00 | 0.00 | 0.00 | 63 | 1009.1 |
| 20260505010744 | 72 | 284 | 4.0 | 5.0 | 0.00 | 0.00 | 0.00 | 63 | 1009.0 |
| 20260505010241 | 72 | 341 | 2.0 | 3.0 | 0.00 | 0.00 | 0.00 | 63 | 1008.9 |
| 20260505005737 | 72 | 342 | 2.0 | 2.0 | 0.00 | 0.00 | 0.00 | 65 | 1009.1 |
| 20260505005234 | 72 | 320 | 3.0 | 3.0 | 0.00 | 0.00 | 0.00 | 67 | 1008.9 |
| 20260505004731 | 72 | 330 | 1.0 | 1.0 | 0.00 | 0.00 | 0.00 | 68 | 1009.0 |
| 20260505004228 | 72 | 56 | 0.0 | 1.0 | 0.00 | 0.00 | 0.00 | 68 | 1009.2 |
| 20260505003725 | 72 | 116 | 0.0 | 0.0 | 0.00 | 0.00 | 0.00 | 69 | 1009.1 |
| 20260505003223 | 73 | 84 | 0.0 | 1.0 | 0.00 | 0.00 | 0.00 | 68 | 1008.9 |
| 20260505002719 | 72 | 170 | 0.0 | 1.0 | 0.00 | 0.00 | 0.00 | 68 | 1009.2 |
| 20260505002216 | 72 | 136 | 2.0 | 3.0 | 0.00 | 0.00 | 0.00 | 69 | 1009.2 |
| 20260505001714 | 72 | 159 | 1.0 | 2.0 | 0.00 | 0.00 | 0.00 | 68 | 1009.0 |
| 20260505001211 | 72 | 115 | 5.0 | 7.0 | 0.00 | 0.00 | 0.00 | 68 | 1009.1 |
| 20260505000708 | 72 | 100 | 3.0 | 5.0 | 0.00 | 0.00 | 0.00 | 69 | 1009.4 |
| 20260505000206 | 72 | 172 | 3.0 | 5.0 | 0.00 | 0.00 | 0.00 | 69 | 1009.2 |
| 20260504235702 | 72 | 139 | 3.0 | 3.0 | 0.00 | 0.00 | 0.00 | 68 | 1009.0 |
| 20260504235158 | 72 | 106 | 2.0 | 3.0 | 0.00 | 0.00 | 0.00 | 68 | 1009.2 |
| 20260504234656 | 72 | 139 | 3.0 | 3.0 | 0.00 | 0.00 | 0.00 | 68 | 1009.4 |
| 20260504234153 | 72 | 137 | 2.0 | 2.0 | 0.00 | 0.00 | 0.00 | 69 | 1009.2 |
| 20260504233649 | 72 | 153 | 3.0 | 5.0 | 0.00 | 0.00 | 0.00 | 69 | 1009.2 |
| 20260504233145 | 72 | 84 | 3.0 | 6.0 | 0.00 | 0.00 | 0.00 | 69 | 1009.1 |
| 20260504232643 | 72 | 79 | 3.0 | 6.0 | 0.00 | 0.00 | 0.00 | 69 | 1009.2 |
| 20260504232139 | 72 | 111 | 5.0 | 7.0 | 0.00 | 0.00 | 0.00 | 68 | 1009.3 |
| 20260504231636 | 72 | 130 | 5.0 | 6.0 | 0.00 | 0.00 | 0.00 | 68 | 1009.1 |
| 20260504231132 | 73 | 145 | 4.0 | 7.0 | 0.00 | 0.00 | 0.00 | 67 | 1009.1 |
| 20260504230629 | 72 | 118 | 4.0 | 5.0 | 0.00 | 0.00 | 0.00 | 67 | 1009.3 |
| 20260504230127 | 73 | 164 | 5.0 | 6.0 | 0.00 | 0.00 | 0.00 | 67 | 1009.4 |
| 20260504225625 | 73 | 101 | 3.0 | 5.0 | 0.00 | 0.00 | 0.00 | 67 | 1009.5 |
| 20260504225121 | 73 | 112 | 4.0 | 5.0 | 0.00 | 0.00 | 0.00 | 67 | 1009.3 |
| 20260504224618 | 72 | 199 | 3.0 | 3.0 | 0.00 | 0.00 | 0.00 | 67 | 1009.4 |
| 20260504224115 | 72 | 133 | 3.0 | 5.0 | 0.00 | 0.00 | 0.00 | 69 | 1009.8 |
| 20260504223612 | 71 | 138 | 2.0 | 5.0 | 0.00 | 0.00 | 0.00 | 69 | 1009.7 |
| 20260504223108 | 71 | 134 | 3.0 | 3.0 | 0.00 | 0.00 | 0.00 | 68 | 1009.7 |
| 20260504222605 | 72 | 160 | 4.0 | 5.0 | 0.00 | 0.00 | 0.00 | 68 | 1009.7 |
| 20260504222102 | 72 | 116 | 4.0 | 6.0 | 0.00 | 0.00 | 0.00 | 68 | 1009.9 |
| 20260504221559 | 71 | 125 | 3.0 | 3.0 | 0.00 | 0.00 | 0.00 | 70 | 1009.9 |
| 20260504221056 | 71 | 128 | 5.0 | 6.0 | 0.00 | 0.00 | 0.00 | 68 | 1009.9 |
| 20260504220552 | 72 | 109 | 3.0 | 6.0 | 0.00 | 0.00 | 0.00 | 69 | 1010.1 |
| 20260504220049 | 72 | 121 | 5.0 | 7.0 | 0.00 | 0.00 | 0.00 | 69 | 1010.3 |
| 20260504215546 | 71 | 194 | 3.0 | 3.0 | 0.00 | 0.00 | 0.00 | 71 | 1010.3 |
| 20260504215044 | 71 | 205 | 6.0 | 7.0 | 0.00 | 0.00 | 0.00 | 68 | 1010.1 |
| 20260504214539 | 71 | 167 | 3.0 | 3.0 | 0.00 | 0.00 | 0.00 | 70 | 1010.2 |
| 20260504214036 | 71 | 160 | 4.0 | 6.0 | 0.00 | 0.00 | 0.00 | 71 | 1010.2 |
| 20260504213532 | 71 | 106 | 4.0 | 6.0 | 0.00 | 0.00 | 0.00 | 70 | 1010.5 |
| 20260504213030 | 71 | 84 | 3.0 | 5.0 | 0.00 | 0.00 | 0.00 | 71 | 1010.6 |
| 20260504212525 | 71 | 165 | 3.0 | 5.0 | 0.00 | 0.00 | 0.00 | 70 | 1010.5 |
| 20260504212023 | 71 | 213 | 3.0 | 3.0 | 0.00 | 0.00 | 0.00 | 70 | 1010.8 |
| 20260504211520 | 70 | 177 | 3.0 | 5.0 | 0.00 | 0.00 | 0.00 | 70 | 1010.5 |
| 20260504211017 | 70 | 107 | 3.0 | 3.0 | 0.00 | 0.00 | 0.00 | 70 | 1010.8 |
| 20260504210513 | 70 | 104 | 4.0 | 7.0 | 0.00 | 0.00 | 0.00 | 70 | 1010.8 |
| 20260504210010 | 69 | 101 | 6.0 | 8.0 | 0.00 | 0.00 | 0.00 | 69 | 1010.9 |
| 20260504205508 | 70 | 214 | 2.0 | 3.0 | 0.00 | 0.00 | 0.00 | 71 | 1010.7 |
| 20260504205006 | 69 | 179 | 5.0 | 6.0 | 0.00 | 0.00 | 0.00 | 70 | 1010.9 |
| 20260504204504 | 70 | 104 | 4.0 | 7.0 | 0.00 | 0.00 | 0.00 | 70 | 1011.0 |
| 20260504204003 | 70 | 150 | 3.0 | 3.0 | 0.00 | 0.00 | 0.00 | 71 | 1011.1 |
| 20260504203500 | 70 | 163 | 3.0 | 3.0 | 0.00 | 0.00 | 0.00 | 71 | 1011.2 |
| 20260504202956 | 69 | 159 | 3.0 | 6.0 | 0.00 | 0.00 | 0.00 | 71 | 1011.2 |
| 20260504202453 | 69 | 125 | 4.0 | 6.0 | 0.00 | 0.00 | 0.00 | 70 | 1011.3 |
| 20260504201950 | 70 | 136 | 5.0 | 7.0 | 0.00 | 0.00 | 0.00 | 69 | 1011.3 |
| 20260504201447 | 69 | 175 | 2.0 | 3.0 | 0.00 | 0.00 | 0.00 | 70 | 1011.3 |
| 20260504200944 | 69 | 132 | 6.0 | 7.0 | 0.00 | 0.00 | 0.00 | 70 | 1011.4 |
| 20260504200441 | 69 | 201 | 4.0 | 6.0 | 0.00 | 0.00 | 0.00 | 71 | 1011.3 |
| 20260504195937 | 69 | 101 | 4.0 | 7.0 | 0.00 | 0.00 | 0.00 | 71 | 1011.4 |
| 20260504195433 | 68 | 116 | 5.0 | 8.0 | 0.00 | 0.00 | 0.00 | 73 | 1011.5 |
| 20260504194930 | 68 | 189 | 5.0 | 6.0 | 0.00 | 0.00 | 0.00 | 71 | 1011.7 |
| 20260504194426 | 68 | 88 | 5.0 | 7.0 | 0.00 | 0.00 | 0.00 | 72 | 1011.5 |
| 20260504193922 | 69 | 349 | 4.0 | 6.0 | 0.00 | 0.00 | 0.00 | 73 | 1011.5 |
| 20260504193419 | 68 | 136 | 3.0 | 5.0 | 0.00 | 0.00 | 0.00 | 72 | 1011.3 |
| 20260504192918 | 68 | 120 | 4.0 | 6.0 | 0.00 | 0.00 | 0.00 | 73 | 1011.6 |
| 20260504192415 | 68 | 187 | 1.0 | 2.0 | 0.00 | 0.00 | 0.00 | 73 | 1011.8 |
| 20260504191914 | 69 | 133 | 2.0 | 6.0 | 0.00 | 0.00 | 0.00 | 72 | 1011.5 |
| 20260504191412 | 68 | 206 | 3.0 | 5.0 | 0.00 | 0.00 | 0.00 | 73 | 1011.8 |
| 20260504190906 | 68 | 144 | 2.0 | 3.0 | 0.00 | 0.00 | 0.00 | 74 | 1011.7 |
| 20260504190403 | 68 | 64 | 1.0 | 2.0 | 0.00 | 0.00 | 0.00 | 76 | 1011.8 |
| 20260504185900 | 67 | 171 | 5.0 | 7.0 | 0.00 | 0.00 | 0.00 | 73 | 1011.8 |
| 20260504185357 | 68 | 112 | 4.0 | 6.0 | 0.00 | 0.00 | 0.00 | 73 | 1012.0 |
| 20260504184853 | 69 | 112 | 2.0 | 3.0 | 0.00 | 0.00 | 0.00 | 72 | 1012.0 |
| 20260504184348 | 68 | 86 | 1.0 | 2.0 | 0.00 | 0.00 | 0.00 | 75 | 1011.9 |
| 20260504183844 | 67 | 105 | 2.0 | 3.0 | 0.00 | 0.00 | 0.00 | 74 | 1012.0 |
| 20260504183342 | 67 | 139 | 5.0 | 8.0 | 0.00 | 0.00 | 0.00 | 73 | 1012.0 |
| 20260504182840 | 68 | 151 | 3.0 | 5.0 | 0.00 | 0.00 | 0.00 | 72 | 1011.9 |
| 20260504182337 | 67 | 120 | 3.0 | 3.0 | 0.00 | 0.00 | 0.00 | 73 | 1011.8 |
| 20260504181833 | 66 | 72 | 4.0 | 5.0 | 0.00 | 0.00 | 0.00 | 73 | 1011.8 |
| 20260504181331 | 66 | 103 | 6.0 | 7.0 | 0.00 | 0.00 | 0.00 | 73 | 1011.9 |
| 20260504180830 | 67 | 181 | 3.0 | 5.0 | 0.00 | 0.00 | 0.00 | 72 | 1011.9 |
| 20260504180328 | 67 | 121 | 1.0 | 2.0 | 0.00 | 0.00 | 0.00 | 74 | 1011.9 |
| 20260504175826 | 66 | 205 | 4.0 | 6.0 | 0.00 | 0.00 | 0.00 | 74 | 1011.9 |
| 20260504175322 | 66 | 91 | 1.0 | 2.0 | 0.00 | 0.00 | 0.00 | 75 | 1012.2 |
| 20260504174821 | 66 | 123 | 3.0 | 5.0 | 0.00 | 0.00 | 0.00 | 75 | 1012.2 |
| 20260504174318 | 65 | 116 | 4.0 | 6.0 | 0.00 | 0.00 | 0.00 | 76 | 1012.1 |
| 20260504173814 | 65 | 104 | 5.0 | 7.0 | 0.00 | 0.00 | 0.00 | 75 | 1011.9 |
| 20260504173311 | 65 | 38 | 3.0 | 5.0 | 0.00 | 0.00 | 0.00 | 75 | 1012.0 |
| 20260504172808 | 65 | 84 | 1.0 | 1.0 | 0.00 | 0.00 | 0.00 | 78 | 1012.0 |
| 20260504172305 | 65 | 82 | 3.0 | 5.0 | 0.00 | 0.00 | 0.00 | 76 | 1012.0 |
| 20260504171800 | 67 | 144 | 3.0 | 3.0 | 0.00 | 0.00 | 0.00 | 73 | 1012.1 |
| 20260504171258 | 66 | 104 | 1.0 | 2.0 | 0.00 | 0.00 | 0.00 | 75 | 1011.9 |
| 20260504170755 | 67 | 66 | 0.0 | 1.0 | 0.00 | 0.00 | 0.00 | 73 | 1012.0 |
| 20260504170252 | 65 | 70 | 0.0 | 1.0 | 0.00 | 0.00 | 0.00 | 75 | 1012.0 |
| 20260504160210 | 62 | 53 | 1.0 | 2.0 | 0.00 | 0.00 | 0.00 | 77 | 1011.8 |
| 20260504151138 | 62 | 28 | 1.0 | 2.0 | 0.00 | 0.00 | 0.00 | 79 | 1011.3 |
| 20260504150636 | 62 | 338 | 3.0 | 3.0 | 0.00 | 0.00 | 0.00 | 79 | 1011.6 |
| 20260504150132 | 61 | 307 | 3.0 | 3.0 | 0.00 | 0.00 | 0.00 | 80 | 1011.4 |
| 20260504141101 | 59 | 291 | 3.0 | 3.0 | 0.00 | 0.00 | 0.00 | 83 | 1010.8 |
| 20260504140558 | 59 | 304 | 4.0 | 5.0 | 0.00 | 0.00 | 0.00 | 83 | 1010.9 |
| 20260504130522 | 57 | 303 | 3.0 | 5.0 | 0.00 | 0.00 | 0.00 | 85 | 1009.7 |
| 20260504110403 | 61 | 329 | 4.0 | 6.0 | 0.00 | 0.00 | 0.00 | 77 | 1008.0 |